• In Netherlands
  • List of Countries
  • For 7 days
  • Water Temperature
  • Satellite Maps
  • Weather Map
  • Weather Widgets
  • user-avatar
    Login

    Hourly Weather Barisal

    Today, 26 July, Wednesday

    Time Temperature Precipitation Wind Pressure Humidity
    00:00 +28°C° 0 mm 3 mps 751 mmHg 90%
    01:00 +28°C° 0.4 mm 3 mps 750 mmHg 90%
    02:00 +28°C° 0.4 mm 3 mps 750 mmHg 90%
    03:00 +28°C° 0.4 mm 3 mps 750 mmHg 90%
    04:00 +28°C° 0.5 mm 3 mps 750 mmHg 90%
    05:00 +28°C° 0.5 mm 3 mps 750 mmHg 90%
    06:00 +28°C° 0.5 mm 3 mps 750 mmHg 89%
    07:00 +30°C° 1.5 mm 3 mps 751 mmHg 83%
    08:00 +31°C° 1.5 mm 3 mps 751 mmHg 78%
    09:00 +33°C° 1.5 mm 4 mps 751 mmHg 72%
    10:00 +34°C° 1.5 mm 4 mps 751 mmHg 70%
    11:00 +35°C° 1.5 mm 4 mps 751 mmHg 68%
    12:00 +35°C° 1.5 mm 4 mps 751 mmHg 66%
    13:00 +35°C° 0.5 mm 4 mps 750 mmHg 66%
    14:00 +35°C° 0.5 mm 4 mps 750 mmHg 65%
    15:00 +35°C° 0.5 mm 4 mps 749 mmHg 65%
    16:00 +34°C° 0.1 mm 4 mps 749 mmHg 68%
    17:00 +34°C° 0.1 mm 4 mps 749 mmHg 72%
    18:00 +33°C° 0.1 mm 3 mps 749 mmHg 75%
    19:00 +31°C° 0 mm 3 mps 750 mmHg 78%
    20:00 +31°C° 0 mm 3 mps 750 mmHg 80%
    21:00 +30°C° 0 mm 3 mps 751 mmHg 83%
    22:00 +30°C° 0.1 mm 3 mps 751 mmHg 83%
    23:00 +30°C° 0.1 mm 3 mps 751 mmHg 84%

    Tomorrow, 27 July, Thursday

    Time Temperature Precipitation Wind Pressure Humidity
    00:00 +30°C° 0.1 mm 2 mps 751 mmHg 85%
    01:00 +30°C° 0.4 mm 3 mps 751 mmHg 86%
    02:00 +30°C° 0.4 mm 3 mps 751 mmHg 86%
    03:00 +29°C° 0.4 mm 3 mps 751 mmHg 86%
    04:00 +29°C° 0.2 mm 2 mps 751 mmHg 86%
    05:00 +29°C° 0.2 mm 2 mps 751 mmHg 86%
    06:00 +29°C° 0.2 mm 2 mps 751 mmHg 86%
    07:00 +30°C° 0.1 mm 2 mps 752 mmHg 80%
    08:00 +31°C° 0.1 mm 2 mps 752 mmHg 74%
    09:00 +34°C° 0.1 mm 3 mps 752 mmHg 68%
    10:00 +34°C° 0.3 mm 3 mps 752 mmHg 67%
    11:00 +35°C° 0.3 mm 4 mps 752 mmHg 65%
    12:00 +35°C° 0.3 mm 4 mps 752 mmHg 63%
    13:00 +35°C° 0.7 mm 4 mps 751 mmHg 64%
    14:00 +35°C° 0.7 mm 4 mps 751 mmHg 64%
    15:00 +35°C° 0.7 mm 5 mps 750 mmHg 65%
    16:00 +35°C° 0.2 mm 4 mps 750 mmHg 67%
    17:00 +34°C° 0.2 mm 4 mps 750 mmHg 69%
    18:00 +34°C° 0.2 mm 4 mps 750 mmHg 71%
    19:00 +33°C° 0 mm 4 mps 751 mmHg 75%
    20:00 +32°C° 0 mm 4 mps 751 mmHg 78%
    21:00 +31°C° 0 mm 3 mps 752 mmHg 81%
    22:00 +30°C° 0.2 mm 3 mps 752 mmHg 82%
    23:00 +30°C° 0.2 mm 3 mps 752 mmHg 83%

    Day after tomorrow, 28 July, Friday

    Time Temperature Precipitation Wind Pressure Humidity
    00:00 +30°C° 0.2 mm 3 mps 752 mmHg 85%
    01:00 +30°C° 1 mm 3 mps 752 mmHg 85%
    02:00 +30°C° 1 mm 3 mps 752 mmHg 86%
    03:00 +29°C° 1 mm 3 mps 752 mmHg 86%
    04:00 +29°C° 1.3 mm 2 mps 752 mmHg 86%
    05:00 +29°C° 1.3 mm 2 mps 752 mmHg 85%
    06:00 +29°C° 1.3 mm 2 mps 752 mmHg 84%
    07:00 +30°C° 1.2 mm 2 mps 753 mmHg 79%
    08:00 +31°C° 1.2 mm 2 mps 753 mmHg 74%
    09:00 +33°C° 1.2 mm 3 mps 753 mmHg 69%
    10:00 +34°C° 0.6 mm 3 mps 753 mmHg 66%
    11:00 +35°C° 0.6 mm 3 mps 753 mmHg 63%
    12:00 +35°C° 0.6 mm 3 mps 753 mmHg 60%
    13:00 +36°C° 0.2 mm 3 mps 752 mmHg 60%
    14:00 +36°C° 0.2 mm 3 mps 751 mmHg 59%
    15:00 +36°C° 0.2 mm 3 mps 751 mmHg 59%
    16:00 +35°C° 0 mm 3 mps 751 mmHg 62%
    17:00 +35°C° 0 mm 3 mps 751 mmHg 65%
    18:00 +34°C° 0 mm 4 mps 751 mmHg 69%
    19:00 +33°C° 0 mm 3 mps 751 mmHg 72%
    20:00 +31°C° 0 mm 3 mps 752 mmHg 76%
    21:00 +31°C° 0 mm 3 mps 753 mmHg 80%
    22:00 +30°C° 0 mm 3 mps 753 mmHg 81%
    23:00 +30°C° 0 mm 3 mps 753 mmHg 82%

    29 July, Saturday

    Time Temperature Precipitation Wind Pressure Humidity
    00:00 +30°C° 0 mm 2 mps 753 mmHg 84%
    01:00 +30°C° 0 mm 2 mps 752 mmHg 85%
    02:00 +30°C° 0 mm 2 mps 752 mmHg 85%
    03:00 +30°C° 0 mm 2 mps 752 mmHg 86%
    04:00 +29°C° 0.3 mm 2 mps 752 mmHg 87%
    05:00 +29°C° 0.3 mm 2 mps 752 mmHg 87%
    06:00 +29°C° 0.3 mm 2 mps 752 mmHg 87%
    07:00 +31°C° 0.2 mm 2 mps 753 mmHg 80%
    08:00 +33°C° 0.2 mm 3 mps 753 mmHg 73%
    09:00 +34°C° 0.2 mm 3 mps 754 mmHg 66%
    10:00 +35°C° 0 mm 3 mps 753 mmHg 63%
    11:00 +36°C° 0 mm 3 mps 753 mmHg 60%
    12:00 +37°C° 0 mm 4 mps 753 mmHg 56%
    13:00 +37°C° 0 mm 4 mps 752 mmHg 56%
    14:00 +37°C° 0 mm 4 mps 751 mmHg 56%
    15:00 +37°C° 0 mm 4 mps 751 mmHg 56%
    16:00 +36°C° 0 mm 4 mps 751 mmHg 59%
    17:00 +35°C° 0 mm 4 mps 750 mmHg 62%
    18:00 +35°C° 0 mm 4 mps 750 mmHg 64%
    19:00 +34°C° 0 mm 4 mps 751 mmHg 68%
    20:00 +33°C° 0 mm 3 mps 751 mmHg 72%
    21:00 +31°C° 0 mm 3 mps 752 mmHg 76%
    22:00 +31°C° 0 mm 3 mps 752 mmHg 77%
    23:00 +31°C° 0 mm 3 mps 752 mmHg 79%

    30 July, Sunday

    Time Temperature Precipitation Wind Pressure Humidity
    00:00 +31°C° 0 mm 2 mps 752 mmHg 80%
    01:00 +30°C° 0 mm 2 mps 752 mmHg 82%
    02:00 +30°C° 0 mm 2 mps 751 mmHg 83%
    03:00 +30°C° 0 mm 2 mps 751 mmHg 84%
    04:00 +30°C° 0 mm 2 mps 751 mmHg 85%
    05:00 +30°C° 0 mm 2 mps 751 mmHg 86%
    06:00 +30°C° 0 mm 2 mps 752 mmHg 86%
    07:00 +31°C° 0 mm 2 mps 752 mmHg 79%
    08:00 +32°C° 0 mm 2 mps 752 mmHg 71%
    09:00 +35°C° 0 mm 2 mps 753 mmHg 64%
    10:00 +36°C° 0 mm 3 mps 752 mmHg 60%
    11:00 +37°C° 0 mm 3 mps 752 mmHg 56%
    12:00 +38°C° 0 mm 3 mps 752 mmHg 52%
    13:00 +38°C° 0 mm 4 mps 751 mmHg 53%
    14:00 +38°C° 0 mm 4 mps 750 mmHg 54%
    15:00 +37°C° 0 mm 4 mps 750 mmHg 54%
    16:00 +37°C° 0 mm 4 mps 750 mmHg 58%
    17:00 +36°C° 0 mm 5 mps 750 mmHg 61%
    18:00 +35°C° 0 mm 5 mps 750 mmHg 64%
    19:00 +34°C° 0 mm 4 mps 750 mmHg 68%
    20:00 +33°C° 0 mm 4 mps 751 mmHg 72%
    21:00 +32°C° 0 mm 4 mps 751 mmHg 76%
    22:00 +32°C° 0 mm 4 mps 751 mmHg 78%
    23:00 +32°C° 0 mm 4 mps 751 mmHg 80%

    31 July, Monday

    Time Temperature Precipitation Wind Pressure Humidity
    00:00 +32°C° 0 mm 4 mps 751 mmHg 82%
    01:00 +31°C° 0 mm 3 mps 751 mmHg 84%
    02:00 +30°C° 0 mm 3 mps 751 mmHg 85%
    03:00 +30°C° 0 mm 3 mps 751 mmHg 87%
    04:00 +30°C° 0 mm 2 mps 751 mmHg 87%
    05:00 +30°C° 0 mm 2 mps 751 mmHg 88%
    06:00 +30°C° 0 mm 2 mps 751 mmHg 88%
    07:00 +31°C° 0 mm 2 mps 752 mmHg 80%
    08:00 +34°C° 0 mm 3 mps 752 mmHg 73%
    09:00 +35°C° 0 mm 3 mps 752 mmHg 65%
    10:00 +36°C° 0 mm 3 mps 752 mmHg 61%
    11:00 +37°C° 0 mm 4 mps 752 mmHg 57%
    12:00 +38°C° 0 mm 4 mps 751 mmHg 53%
    13:00 +38°C° 0.1 mm 4 mps 751 mmHg 54%
    14:00 +38°C° 0.1 mm 4 mps 750 mmHg 55%
    15:00 +39°C° 0.1 mm 5 mps 750 mmHg 55%
    16:00 +37°C° 0 mm 5 mps 750 mmHg 59%
    17:00 +36°C° 0 mm 5 mps 750 mmHg 62%
    18:00 +35°C° 0 mm 5 mps 750 mmHg 66%
    19:00 +34°C° 0 mm 5 mps 750 mmHg 69%
    20:00 +34°C° 0 mm 4 mps 751 mmHg 73%
    21:00 +33°C° 0 mm 4 mps 752 mmHg 77%
    22:00 +33°C° 0 mm 4 mps 751 mmHg 78%
    23:00 +32°C° 0 mm 4 mps 751 mmHg 80%
    Show more